Location: Most
(50.5330°N, 13.6500°E)
Time: 16:11:28
(UTC+01:00)

ISS - Visible Passes

Search period start: 25 February 2020 00:00
Search period end: 06 March 2020 00:00
Orbit: 415 x 422 km, 51.6° (Epoch: 26 February)

Date Brightness Start Highest point End Pass type
(mag) Time Alt. Az. Time Alt. Az. Time Alt. Az.
25 Feb -0.7 04:24:32 10° SE 04:24:52 10° SE 04:25:12 10° SE visible
25 Feb -2.7 05:57:45 10° SW 06:00:59 44° SSE 06:04:14 10° E visible
26 Feb -2.2 05:11:56 21° SSW 05:13:27 31° SSE 05:16:29 10° E visible
27 Feb -1.6 04:26:20 21° SE 04:26:20 21° SE 04:28:37 10° E visible
27 Feb -3.7 05:59:18 12° WSW 06:02:23 78° SSE 06:05:47 10° ENE visible
28 Feb -3.4 05:13:36 35° SW 05:14:46 60° SSE 05:18:06 10° ENE visible
29 Feb -2.4 04:27:51 37° ESE 04:27:51 37° ESE 04:30:23 10° E visible
29 Feb -3.7 06:00:48 12° W 06:03:51 76° N 06:07:15 10° E visible
01 Mar -0.6 03:42:02 14° E 03:42:02 14° E 03:42:36 10° E visible
01 Mar -3.8 05:14:59 38° W 05:16:09 87° NNW 05:19:33 10° ENE visible
02 Mar -3.1 04:29:07 54° E 04:29:07 54° E 04:31:51 10° ENE visible
02 Mar -3.6 06:02:03 11° W 06:05:20 71° N 06:08:43 10° E visible
03 Mar -0.8 03:43:13 17° E 03:43:13 17° E 03:44:07 10° ENE visible
03 Mar -3.7 05:16:10 31° W 05:17:36 71° N 05:20:59 10° E visible
04 Mar -3.4 04:30:15 64° NE 04:30:15 64° NE 04:33:14 10° E visible
04 Mar -3.7 06:03:22 10° WNW 06:06:46 85° N 06:10:09 10° ESE visible
05 Mar -1.1 03:44:19 20° ENE 03:44:19 20° ENE 03:45:30 10° ENE visible
05 Mar -3.7 05:17:16 26° WNW 05:19:01 75° N 05:22:24 10° E visible
